| time (UTC) | temp F | wind direction | speed MPH | gust MPH | rain 1hr in | rain 24hr in | rain mn in | humidity % | barometer mb |
| 20260506134858 | 42 | 137 | 0.0 | 0.0 | 0.00 | 0.51 | 0.51 | 97 | 1007.4 |
| 20260506134354 | 42 | 158 | 1.0 | 1.0 | 0.07 | 0.51 | 0.51 | 97 | 1007.6 |
| 20260506133851 | 42 | 148 | 0.0 | 0.0 | 0.14 | 0.51 | 0.51 | 97 | 1007.7 |
| 20260506133348 | 42 | 118 | 0.0 | 1.0 | 0.12 | 0.50 | 0.50 | 97 | 1007.8 |
| 20260506132844 | 42 | 129 | 0.0 | 0.0 | 0.05 | 0.49 | 0.49 | 97 | 1007.7 |
| 20260506132342 | 42 | 145 | 0.0 | 0.0 | 0.07 | 0.48 | 0.48 | 97 | 1007.9 |
| 20260506131840 | 42 | 45 | 1.0 | 1.0 | 0.12 | 0.48 | 0.48 | 97 | 1007.7 |
| 20260506131336 | 42 | 129 | 1.0 | 1.0 | 0.17 | 0.47 | 0.47 | 97 | 1007.9 |
| 20260506130834 | 42 | 143 | 0.0 | 0.0 | 0.19 | 0.46 | 0.46 | 97 | 1007.5 |
| 20260506130330 | 42 | 140 | 1.0 | 1.0 | 0.17 | 0.45 | 0.45 | 97 | 1007.6 |
| 20260506125828 | 42 | 65 | 1.0 | 2.0 | 0.17 | 0.43 | 0.43 | 97 | 1007.7 |
| 20260506125326 | 42 | 122 | 0.0 | 1.0 | 0.17 | 0.41 | 0.41 | 97 | 1007.9 |
| 20260506124824 | 42 | 99 | 1.0 | 1.0 | 0.26 | 0.40 | 0.40 | 97 | 1007.7 |
| 20260506124320 | 42 | 142 | 1.0 | 1.0 | 0.19 | 0.38 | 0.38 | 97 | 1007.7 |
| 20260506123818 | 42 | 144 | 0.0 | 1.0 | 0.12 | 0.36 | 0.36 | 97 | 1007.8 |
| 20260506123316 | 42 | 151 | 0.0 | 0.0 | 0.12 | 0.35 | 0.35 | 97 | 1007.7 |
| 20260506122813 | 42 | 130 | 1.0 | 2.0 | 0.12 | 0.33 | 0.33 | 97 | 1007.6 |
| 20260506122310 | 42 | 140 | 0.0 | 0.0 | 0.12 | 0.33 | 0.33 | 97 | 1007.4 |
| 20260506121808 | 42 | 139 | 0.0 | 0.0 | 0.12 | 0.32 | 0.32 | 97 | 1007.6 |
| 20260506121305 | 42 | 152 | 0.0 | 0.0 | 0.12 | 0.31 | 0.31 | 97 | 1007.6 |
| 20260506120802 | 42 | 151 | 0.0 | 0.0 | 0.12 | 0.30 | 0.30 | 97 | 1007.3 |
| 20260506120300 | 42 | 91 | 1.0 | 2.0 | 0.07 | 0.29 | 0.29 | 97 | 1007.6 |
| 20260506115757 | 42 | 117 | 2.0 | 2.0 | 0.05 | 0.28 | 0.28 | 97 | 1007.5 |
| 20260506115255 | 42 | 35 | 2.0 | 2.0 | 0.05 | 0.28 | 0.28 | 97 | 1007.4 |
| 20260506114753 | 42 | 93 | 2.0 | 2.0 | 0.00 | 0.27 | 0.27 | 97 | 1007.4 |
| 20260506114250 | 42 | 98 | 0.0 | 1.0 | 0.00 | 0.27 | 0.27 | 97 | 1007.7 |
| 20260506113749 | 42 | 141 | 1.0 | 1.0 | 0.07 | 0.27 | 0.27 | 97 | 1007.6 |
| 20260506113246 | 42 | 138 | 1.0 | 1.0 | 0.07 | 0.27 | 0.27 | 97 | 1007.6 |
| 20260506112742 | 42 | 140 | 0.0 | 1.0 | 0.05 | 0.26 | 0.26 | 97 | 1007.6 |
| 20260506112240 | 42 | 30 | 2.0 | 2.0 | 0.05 | 0.26 | 0.26 | 97 | 1007.7 |
| 20260506111737 | 42 | 131 | 1.0 | 1.0 | 0.07 | 0.25 | 0.25 | 97 | 1007.9 |
| 20260506111235 | 42 | 86 | 1.0 | 1.0 | 0.14 | 0.25 | 0.25 | 97 | 1008.0 |
| 20260506110732 | 42 | 112 | 1.0 | 1.0 | 0.12 | 0.24 | 0.24 | 97 | 1008.0 |
| 20260506110230 | 42 | 122 | 1.0 | 2.0 | 0.12 | 0.23 | 0.23 | 97 | 1008.2 |
| 20260506105726 | 42 | 143 | 0.0 | 0.0 | 0.19 | 0.22 | 0.22 | 97 | 1007.8 |
| 20260506105223 | 42 | 151 | 0.0 | 1.0 | 0.12 | 0.21 | 0.21 | 97 | 1008.2 |
| 20260506104721 | 42 | 141 | 0.0 | 0.0 | 0.12 | 0.20 | 0.20 | 97 | 1007.6 |
| 20260506104218 | 42 | 147 | 0.0 | 0.0 | 0.05 | 0.19 | 0.19 | 97 | 1007.9 |
| 20260506103715 | 42 | 149 | 0.0 | 0.0 | 0.07 | 0.18 | 0.18 | 97 | 1007.6 |
| 20260506103212 | 42 | 145 | 0.0 | 0.0 | 0.07 | 0.18 | 0.18 | 97 | 1007.5 |
| 20260506102710 | 42 | 135 | 0.0 | 1.0 | 0.05 | 0.17 | 0.17 | 97 | 1007.8 |
| 20260506102208 | 42 | 148 | 0.0 | 0.0 | 0.05 | 0.17 | 0.17 | 97 | 1007.7 |
| 20260506101704 | 42 | 146 | 0.0 | 0.0 | 0.00 | 0.16 | 0.16 | 97 | 1007.5 |
| 20260506101201 | 42 | 146 | 0.0 | 0.0 | 0.00 | 0.16 | 0.16 | 97 | 1007.5 |
| 20260506100659 | 42 | 147 | 0.0 | 0.0 | 0.00 | 0.16 | 0.16 | 97 | 1007.4 |
| 20260506100157 | 42 | 144 | 0.0 | 0.0 | 0.00 | 0.16 | 0.16 | 97 | 1007.5 |
| 20260506095655 | 42 | 147 | 0.0 | 0.0 | 0.07 | 0.16 | 0.16 | 97 | 1007.6 |
| 20260506095151 | 42 | 146 | 0.0 | 0.0 | 0.12 | 0.16 | 0.16 | 97 | 1007.4 |
| 20260506094649 | 42 | 142 | 0.0 | 0.0 | 0.12 | 0.15 | 0.15 | 97 | 1007.6 |
| 20260506094147 | 42 | 145 | 0.0 | 0.0 | 0.07 | 0.14 | 0.14 | 97 | 1007.5 |
| 20260506093645 | 42 | 127 | 0.0 | 1.0 | 0.14 | 0.14 | 0.14 | 97 | 1007.8 |
| 20260506093142 | 42 | 145 | 0.0 | 0.0 | 0.07 | 0.13 | 0.13 | 97 | 1007.7 |
| 20260506092640 | 42 | 143 | 0.0 | 0.0 | 0.05 | 0.12 | 0.12 | 97 | 1007.8 |
| 20260506092137 | 42 | 147 | 0.0 | 0.0 | 0.05 | 0.12 | 0.12 | 97 | 1008.1 |
| 20260506091635 | 42 | 115 | 0.0 | 0.0 | 0.00 | 0.11 | 0.11 | 96 | 1008.1 |
| 20260506091132 | 42 | 139 | 0.0 | 0.0 | 0.00 | 0.11 | 0.11 | 97 | 1008.2 |
| 20260506090630 | 42 | 125 | 1.0 | 1.0 | 0.07 | 0.11 | 0.11 | 97 | 1008.5 |
| 20260506090126 | 43 | 150 | 1.0 | 1.0 | 0.07 | 0.11 | 0.11 | 97 | 1008.1 |
| 20260506085623 | 42 | 172 | 2.0 | 2.0 | 0.05 | 0.10 | 0.10 | 96 | 1008.6 |
| 20260506085119 | 42 | 79 | 2.0 | 2.0 | 0.05 | 0.10 | 0.10 | 96 | 1008.4 |
| 20260506084616 | 42 | 127 | 0.0 | 1.0 | 0.07 | 0.09 | 0.09 | 96 | 1008.1 |
| 20260506084112 | 43 | 109 | 0.0 | 1.0 | 0.12 | 0.09 | 0.09 | 96 | 1008.5 |
| 20260506083610 | 43 | 116 | 1.0 | 2.0 | 0.05 | 0.08 | 0.08 | 96 | 1008.3 |
| 20260506083107 | 43 | 77 | 2.0 | 3.0 | 0.07 | 0.07 | 0.07 | 96 | 1008.1 |
| 20260506082603 | 43 | 37 | 2.0 | 3.0 | 0.07 | 0.07 | 0.07 | 96 | 1007.8 |
| 20260506082059 | 44 | 105 | 1.0 | 2.0 | 0.05 | 0.06 | 0.06 | 96 | 1008.4 |
| 20260506081558 | 45 | 175 | 1.0 | 1.0 | 0.12 | 0.06 | 0.06 | 96 | 1008.0 |
| 20260506081055 | 45 | 130 | 0.0 | 1.0 | 0.12 | 0.05 | 0.05 | 97 | 1008.1 |
| 20260506080552 | 46 | 92 | 2.0 | 3.0 | 0.05 | 0.04 | 0.04 | 97 | 1008.2 |
| 20260506073033 | 46 | 122 | 1.0 | 1.0 | 0.00 | 0.01 | 0.01 | 97 | 1007.9 |
| 20260506072530 | 46 | 148 | 0.0 | 0.0 | 0.00 | 0.01 | 0.01 | 96 | 1007.7 |
| 20260506072027 | 46 | 145 | 0.0 | 0.0 | 0.00 | 0.01 | 0.01 | 96 | 1007.8 |
| 20260506071525 | 46 | 134 | 0.0 | 0.0 | 0.00 | 0.01 | 0.01 | 96 | 1007.7 |
| 20260506071022 | 46 | 148 | 0.0 | 0.0 | 0.00 | 0.01 | 0.01 | 96 | 1007.7 |
| 20260506070520 | 46 | 149 | 0.0 | 0.0 | 0.00 | 0.01 | 0.01 | 96 | 1007.8 |
| 20260506062457 | 47 | 142 | 0.0 | 0.0 | 0.00 | 0.01 | 0.01 | 96 | 1008.6 |
| 20260506061953 | 47 | 145 | 0.0 | 0.0 | 0.00 | 0.01 | 0.01 | 96 | 1008.7 |
| 20260506061449 | 47 | 145 | 0.0 | 0.0 | 0.00 | 0.01 | 0.01 | 96 | 1008.6 |
| 20260506060947 | 47 | 146 | 0.0 | 0.0 | 0.00 | 0.01 | 0.01 | 96 | 1008.6 |
| 20260506060445 | 47 | 146 | 0.0 | 0.0 | 0.00 | 0.01 | 0.01 | 96 | 1008.7 |
| 20260506050914 | 47 | 145 | 0.0 | 0.0 | 0.00 | 0.00 | 0.00 | 96 | 1009.4 |
| 20260506050412 | 47 | 168 | 0.0 | 0.0 | 0.00 | 0.00 | 0.00 | 96 | 1009.4 |
| 20260506044902 | 47 | 140 | 0.0 | 0.0 | 0.00 | 0.00 | 0.00 | 96 | 1009.8 |
| 20260506044400 | 47 | 156 | 0.0 | 0.0 | 0.00 | 0.00 | 0.00 | 96 | 1009.5 |
| 20260506043857 | 46 | 143 | 0.0 | 0.0 | 0.00 | 0.00 | 0.00 | 96 | 1009.4 |
| 20260506043354 | 46 | 147 | 0.0 | 0.0 | 0.00 | 0.00 | 0.00 | 96 | 1009.4 |
| 20260506042852 | 46 | 147 | 0.0 | 0.0 | 0.00 | 0.00 | 0.00 | 96 | 1009.5 |
| 20260506042351 | 46 | 142 | 0.0 | 0.0 | 0.00 | 0.00 | 0.00 | 96 | 1009.7 |
| 20260506041849 | 46 | 150 | 0.0 | 0.0 | 0.00 | 0.00 | 0.00 | 96 | 1009.4 |
| 20260506041346 | 46 | 150 | 0.0 | 0.0 | 0.00 | 0.00 | 0.00 | 96 | 1009.7 |
| 20260506040843 | 46 | 149 | 0.0 | 0.0 | 0.00 | 0.00 | 0.00 | 95 | 1009.6 |
| 20260506040341 | 46 | 149 | 0.0 | 0.0 | 0.00 | 0.00 | 0.00 | 95 | 1009.7 |
| 20260506035836 | 46 | 149 | 0.0 | 0.0 | 0.00 | 0.29 | 0.29 | 95 | 1009.4 |
| 20260506035334 | 46 | 149 | 0.0 | 0.0 | 0.00 | 0.29 | 0.29 | 95 | 1009.5 |
| 20260506034831 | 46 | 149 | 0.0 | 0.0 | 0.00 | 0.29 | 0.29 | 95 | 1009.7 |
| 20260506034328 | 46 | 149 | 0.0 | 0.0 | 0.07 | 0.29 | 0.29 | 95 | 1009.6 |
| 20260506033825 | 46 | 145 | 0.0 | 0.0 | 0.19 | 0.29 | 0.29 | 95 | 1009.4 |
| 20260506033322 | 46 | 150 | 0.0 | 0.0 | 0.17 | 0.28 | 0.28 | 95 | 1010.1 |
| 20260506032819 | 46 | 158 | 0.0 | 0.0 | 0.17 | 0.26 | 0.26 | 95 | 1010.0 |
| 20260506032316 | 46 | 154 | 0.0 | 0.0 | 0.19 | 0.25 | 0.25 | 95 | 1009.9 |
| 20260506031813 | 46 | 146 | 0.0 | 0.0 | 0.12 | 0.23 | 0.23 | 95 | 1010.3 |
| 20260506031310 | 46 | 144 | 0.0 | 0.0 | 0.12 | 0.22 | 0.22 | 95 | 1009.6 |
| 20260506030808 | 46 | 147 | 0.0 | 0.0 | 0.07 | 0.21 | 0.21 | 95 | 1009.6 |
| 20260506030306 | 46 | 142 | 0.0 | 0.0 | 0.05 | 0.20 | 0.20 | 95 | 1009.9 |
| 20260506025802 | 46 | 142 | 0.0 | 1.0 | 0.05 | 0.20 | 0.20 | 95 | 1010.0 |
| 20260506025258 | 46 | 114 | 1.0 | 1.0 | 0.07 | 0.19 | 0.19 | 95 | 1009.9 |
| 20260506024756 | 46 | 135 | 0.0 | 1.0 | 0.07 | 0.19 | 0.19 | 94 | 1010.0 |
| 20260506024252 | 46 | 157 | 0.0 | 0.0 | 0.05 | 0.18 | 0.18 | 94 | 1010.3 |
| 20260506023748 | 46 | 149 | 0.0 | 0.0 | 0.12 | 0.18 | 0.18 | 94 | 1010.0 |
| 20260506023246 | 46 | 150 | 0.0 | 0.0 | 0.07 | 0.17 | 0.17 | 94 | 1010.2 |
| 20260506022742 | 46 | 142 | 1.0 | 1.0 | 0.00 | 0.16 | 0.16 | 94 | 1010.3 |
| 20260506022240 | 46 | 154 | 0.0 | 0.0 | 0.07 | 0.16 | 0.16 | 94 | 1010.2 |
| 20260506021738 | 46 | 154 | 0.0 | 0.0 | 0.12 | 0.16 | 0.16 | 94 | 1010.1 |
| 20260506021235 | 46 | 145 | 0.0 | 0.0 | 0.12 | 0.15 | 0.15 | 94 | 1010.5 |
| 20260506020731 | 46 | 142 | 0.0 | 0.0 | 0.19 | 0.14 | 0.14 | 94 | 1010.3 |
| 20260506020230 | 46 | 158 | 0.0 | 0.0 | 0.12 | 0.13 | 0.13 | 93 | 1010.4 |
| 20260506015727 | 46 | 185 | 0.0 | 1.0 | 0.05 | 0.11 | 0.11 | 93 | 1010.2 |
| 20260506015224 | 46 | 157 | 0.0 | 0.0 | 0.05 | 0.11 | 0.11 | 93 | 1010.0 |
| 20260506014721 | 46 | 134 | 0.0 | 0.0 | 0.17 | 0.11 | 0.11 | 93 | 1009.7 |
| 20260506014217 | 46 | 145 | 0.0 | 0.0 | 0.12 | 0.10 | 0.10 | 93 | 1009.4 |
| 20260506013715 | 46 | 153 | 0.0 | 0.0 | 0.00 | 0.08 | 0.08 | 93 | 1009.8 |
| 20260506013212 | 46 | 140 | 0.0 | 0.0 | 0.07 | 0.08 | 0.08 | 92 | 1010.0 |
| 20260506012708 | 46 | 148 | 0.0 | 0.0 | 0.07 | 0.08 | 0.08 | 92 | 1009.4 |
| 20260506012205 | 47 | 91 | 1.0 | 2.0 | 0.05 | 0.07 | 0.07 | 92 | 1010.1 |
| 20260506011702 | 47 | 142 | 0.0 | 0.0 | 0.05 | 0.07 | 0.07 | 92 | 1009.9 |
| 20260506011158 | 47 | 144 | 0.0 | 0.0 | 0.00 | 0.06 | 0.06 | 91 | 1009.8 |
| 20260506010657 | 47 | 143 | 0.0 | 1.0 | 0.07 | 0.06 | 0.06 | 91 | 1010.1 |
| 20260506010154 | 47 | 164 | 0.0 | 0.0 | 0.07 | 0.06 | 0.06 | 91 | 1009.7 |
| 20260506005651 | 47 | 127 | 0.0 | 1.0 | 0.00 | 0.05 | 0.05 | 90 | 1009.6 |
| 20260506005147 | 47 | 167 | 0.0 | 1.0 | 0.00 | 0.05 | 0.05 | 90 | 1009.8 |
| 20260506004643 | 47 | 141 | 0.0 | 1.0 | 0.05 | 0.05 | 0.05 | 89 | 1009.4 |
| 20260506004141 | 47 | 193 | 2.0 | 2.0 | 0.05 | 0.05 | 0.05 | 88 | 1009.6 |
| 20260506003637 | 48 | 131 | 1.0 | 2.0 | 0.00 | 0.04 | 0.04 | 87 | 1009.6 |
| 20260506003133 | 48 | 135 | 0.0 | 2.0 | 0.00 | 0.04 | 0.04 | 87 | 1009.3 |
| 20260506002629 | 49 | 158 | 2.0 | 2.0 | 0.14 | 0.04 | 0.04 | 85 | 1009.8 |
| 20260506002126 | 50 | 261 | 1.0 | 3.0 | 0.14 | 0.04 | 0.04 | 83 | 1009.4 |
| 20260506001621 | 51 | 235 | 2.0 | 2.0 | 0.00 | 0.02 | 0.02 | 78 | 1009.8 |
| 20260506001119 | 53 | 209 | 3.0 | 3.0 | 0.00 | 0.02 | 0.02 | 74 | 1009.2 |
| 20260506000616 | 53 | 199 | 1.0 | 1.0 | 0.00 | 0.02 | 0.02 | 73 | 1008.9 |
| 20260506000114 | 53 | 179 | 1.0 | 1.0 | 0.00 | 0.02 | 0.02 | 73 | 1008.8 |
| 20260505235612 | 54 | 169 | 1.0 | 1.0 | 0.00 | 0.02 | 0.02 | 74 | 1009.0 |
| 20260505235108 | 54 | 203 | 1.0 | 2.0 | 0.00 | 0.02 | 0.02 | 73 | 1008.8 |
| 20260505234605 | 54 | 160 | 1.0 | 2.0 | 0.00 | 0.02 | 0.02 | 73 | 1008.6 |
| 20260505234102 | 55 | 143 | 2.0 | 3.0 | 0.00 | 0.02 | 0.02 | 73 | 1008.8 |
| 20260505233600 | 55 | 251 | 3.0 | 3.0 | 0.00 | 0.02 | 0.02 | 75 | 1008.5 |
| 20260505233057 | 56 | 272 | 3.0 | 3.0 | 0.00 | 0.02 | 0.02 | 74 | 1008.2 |
| 20260505232555 | 56 | 160 | 3.0 | 3.0 | 0.00 | 0.02 | 0.02 | 73 | 1008.0 |
| 20260505232052 | 56 | 226 | 3.0 | 5.0 | 0.00 | 0.02 | 0.02 | 74 | 1008.0 |
| 20260505231548 | 57 | 262 | 4.0 | 5.0 | 0.00 | 0.02 | 0.02 | 74 | 1007.9 |
| 20260505231047 | 57 | 247 | 5.0 | 5.0 | 0.00 | 0.02 | 0.02 | 72 | 1007.9 |
| 20260505230544 | 57 | 268 | 3.0 | 3.0 | 0.00 | 0.02 | 0.02 | 72 | 1007.5 |
| 20260505230040 | 58 | 267 | 4.0 | 5.0 | 0.00 | 0.02 | 0.02 | 71 | 1007.4 |
| 20260505225537 | 58 | 157 | 2.0 | 2.0 | 0.00 | 0.02 | 0.02 | 72 | 1007.4 |
| 20260505225033 | 59 | 316 | 3.0 | 3.0 | 0.00 | 0.02 | 0.02 | 72 | 1007.3 |
| 20260505224531 | 60 | 294 | 4.0 | 7.0 | 0.00 | 0.02 | 0.02 | 74 | 1007.0 |
| 20260505224028 | 60 | 115 | 1.0 | 2.0 | 0.00 | 0.02 | 0.02 | 75 | 1006.9 |
| 20260505223525 | 60 | 36 | 0.0 | 1.0 | 0.00 | 0.02 | 0.02 | 77 | 1006.7 |
| 20260505223021 | 60 | 226 | 1.0 | 2.0 | 0.00 | 0.02 | 0.02 | 77 | 1006.6 |
| 20260505222517 | 60 | 91 | 2.0 | 3.0 | 0.00 | 0.02 | 0.02 | 76 | 1006.5 |
| 20260505222013 | 61 | 156 | 2.0 | 2.0 | 0.00 | 0.02 | 0.02 | 78 | 1006.6 |
| 20260505221511 | 61 | 155 | 1.0 | 1.0 | 0.00 | 0.02 | 0.02 | 78 | 1006.3 |
| 20260505221008 | 62 | 122 | 0.0 | 1.0 | 0.00 | 0.02 | 0.02 | 77 | 1005.8 |
| 20260505220504 | 62 | 98 | 1.0 | 1.0 | 0.00 | 0.02 | 0.02 | 78 | 1005.9 |
| 20260505220002 | 62 | 166 | 0.0 | 1.0 | 0.00 | 0.02 | 0.02 | 78 | 1006.0 |
| 20260505215500 | 63 | 135 | 1.0 | 1.0 | 0.00 | 0.02 | 0.02 | 76 | 1005.9 |
| 20260505214958 | 64 | 128 | 2.0 | 2.0 | 0.00 | 0.02 | 0.02 | 79 | 1005.9 |
| 20260505214456 | 63 | 186 | 2.0 | 2.0 | 0.00 | 0.02 | 0.02 | 82 | 1005.8 |
| 20260505213952 | 63 | 158 | 1.0 | 1.0 | 0.00 | 0.02 | 0.02 | 86 | 1005.7 |
| 20260505213450 | 62 | 166 | 0.0 | 0.0 | 0.00 | 0.02 | 0.02 | 87 | 1005.8 |
| 20260505212946 | 62 | 180 | 1.0 | 2.0 | 0.00 | 0.02 | 0.02 | 87 | 1005.7 |
| 20260505212443 | 62 | 181 | 1.0 | 2.0 | 0.00 | 0.02 | 0.02 | 87 | 1005.6 |
| 20260505211939 | 62 | 176 | 1.0 | 2.0 | 0.00 | 0.02 | 0.02 | 88 | 1005.5 |
| 20260505211437 | 62 | 188 | 1.0 | 1.0 | 0.00 | 0.02 | 0.02 | 88 | 1005.6 |
| 20260505210933 | 61 | 190 | 2.0 | 2.0 | 0.00 | 0.02 | 0.02 | 87 | 1005.5 |
| 20260505210431 | 61 | 196 | 2.0 | 2.0 | 0.00 | 0.02 | 0.02 | 89 | 1005.7 |
| 20260505205927 | 61 | 179 | 1.0 | 1.0 | 0.00 | 0.02 | 0.02 | 88 | 1005.5 |
| 20260505205426 | 62 | 177 | 0.0 | 1.0 | 0.00 | 0.02 | 0.02 | 87 | 1005.5 |
| 20260505204922 | 62 | 168 | 1.0 | 1.0 | 0.00 | 0.02 | 0.02 | 86 | 1005.3 |
| 20260505204420 | 63 | 206 | 1.0 | 2.0 | 0.00 | 0.02 | 0.02 | 85 | 1005.4 |
| 20260505203917 | 63 | 169 | 0.0 | 1.0 | 0.00 | 0.02 | 0.02 | 83 | 1005.3 |
| 20260505203414 | 64 | 188 | 1.0 | 2.0 | 0.00 | 0.02 | 0.02 | 82 | 1005.4 |
| 20260505202910 | 66 | 214 | 3.0 | 3.0 | 0.00 | 0.02 | 0.02 | 78 | 1005.2 |
| 20260505202406 | 67 | 187 | 1.0 | 1.0 | 0.00 | 0.02 | 0.02 | 73 | 1004.9 |
| 20260505201903 | 67 | 175 | 1.0 | 1.0 | 0.00 | 0.02 | 0.02 | 73 | 1004.8 |
| 20260505201400 | 67 | 189 | 1.0 | 2.0 | 0.00 | 0.02 | 0.02 | 74 | 1005.1 |
| 20260505200858 | 67 | 189 | 1.0 | 1.0 | 0.00 | 0.02 | 0.02 | 74 | 1005.2 |
| 20260505200355 | 67 | 192 | 2.0 | 2.0 | 0.00 | 0.02 | 0.02 | 73 | 1005.0 |
| 20260505195850 | 67 | 196 | 2.0 | 2.0 | 0.00 | 0.02 | 0.02 | 73 | 1005.0 |
| 20260505195348 | 67 | 212 | 2.0 | 2.0 | 0.00 | 0.02 | 0.02 | 72 | 1005.2 |
| 20260505194845 | 66 | 213 | 3.0 | 3.0 | 0.00 | 0.02 | 0.02 | 74 | 1005.1 |
| 20260505194342 | 66 | 213 | 2.0 | 2.0 | 0.00 | 0.02 | 0.02 | 74 | 1005.4 |
| 20260505193837 | 66 | 242 | 4.0 | 5.0 | 0.00 | 0.02 | 0.02 | 74 | 1005.2 |
| 20260505193336 | 66 | 226 | 3.0 | 5.0 | 0.00 | 0.02 | 0.02 | 75 | 1005.1 |
| 20260505192833 | 65 | 203 | 3.0 | 3.0 | 0.00 | 0.02 | 0.02 | 81 | 1005.3 |
| 20260505192331 | 65 | 171 | 1.0 | 1.0 | 0.00 | 0.02 | 0.02 | 81 | 1005.5 |
| 20260505191828 | 65 | 159 | 0.0 | 0.0 | 0.00 | 0.02 | 0.02 | 82 | 1005.2 |
| 20260505191327 | 64 | 195 | 2.0 | 3.0 | 0.00 | 0.02 | 0.02 | 81 | 1005.2 |
| 20260505190823 | 64 | 192 | 1.0 | 2.0 | 0.00 | 0.02 | 0.02 | 82 | 1005.3 |
| 20260505190319 | 63 | 203 | 3.0 | 3.0 | 0.00 | 0.02 | 0.02 | 84 | 1005.3 |
| 20260505185815 | 62 | 212 | 3.0 | 3.0 | 0.00 | 0.02 | 0.02 | 87 | 1005.2 |
| 20260505185311 | 61 | 189 | 3.0 | 5.0 | 0.00 | 0.02 | 0.02 | 89 | 1005.2 |
| 20260505184807 | 60 | 186 | 2.0 | 2.0 | 0.00 | 0.02 | 0.02 | 90 | 1005.2 |
| 20260505184304 | 59 | 190 | 1.0 | 1.0 | 0.00 | 0.02 | 0.02 | 91 | 1005.3 |
| 20260505183801 | 59 | 167 | 1.0 | 1.0 | 0.00 | 0.02 | 0.02 | 91 | 1005.3 |
| 20260505183258 | 58 | 188 | 1.0 | 1.0 | 0.00 | 0.02 | 0.02 | 91 | 1005.5 |
| 20260505182755 | 58 | 211 | 2.0 | 2.0 | 0.00 | 0.02 | 0.02 | 90 | 1005.1 |
| 20260505182252 | 58 | 196 | 3.0 | 3.0 | 0.00 | 0.02 | 0.02 | 88 | 1005.1 |
| 20260505181748 | 59 | 220 | 6.0 | 9.0 | 0.05 | 0.02 | 0.02 | 87 | 1006.1 |
| 20260505181246 | 59 | 252 | 4.0 | 5.0 | 0.12 | 0.02 | 0.02 | 89 | 1005.6 |
| 20260505180742 | 59 | 236 | 5.0 | 6.0 | 0.07 | 0.01 | 0.01 | 88 | 1005.6 |
| 20260505180239 | 60 | 268 | 10.0 | 10.0 | 0.00 | 0.00 | 0.00 | 85 | 1005.7 |
| 20260505175735 | 62 | 247 | 5.0 | 6.0 | 0.00 | 0.00 | 0.00 | 81 | 1005.4 |
| 20260505175232 | 62 | 250 | 5.0 | 6.0 | 0.00 | 0.00 | 0.00 | 81 | 1004.9 |
| 20260505174728 | 64 | 255 | 4.0 | 5.0 | 0.00 | 0.00 | 0.00 | 77 | 1005.1 |
| 20260505174226 | 64 | 231 | 3.0 | 3.0 | 0.00 | 0.00 | 0.00 | 74 | 1004.6 |
| 20260505173721 | 63 | 213 | 3.0 | 3.0 | 0.00 | 0.00 | 0.00 | 76 | 1004.4 |
| 20260505173218 | 62 | 223 | 3.0 | 3.0 | 0.00 | 0.00 | 0.00 | 77 | 1004.7 |
| 20260505172715 | 62 | 215 | 3.0 | 5.0 | 0.00 | 0.00 | 0.00 | 79 | 1004.6 |
| 20260505172213 | 62 | 230 | 4.0 | 5.0 | 0.00 | 0.00 | 0.00 | 79 | 1004.8 |
| 20260505171712 | 64 | 234 | 9.0 | 10.0 | 0.00 | 0.00 | 0.00 | 78 | 1004.9 |
| 20260505171210 | 69 | 229 | 5.0 | 5.0 | 0.00 | 0.00 | 0.00 | 65 | 1004.8 |
| 20260505170706 | 69 | 218 | 5.0 | 6.0 | 0.00 | 0.00 | 0.00 | 57 | 1004.6 |
| 20260505170203 | 70 | 234 | 3.0 | 5.0 | 0.00 | 0.00 | 0.00 | 57 | 1004.5 |
| 20260505165658 | 70 | 222 | 5.0 | 6.0 | 0.00 | 0.00 | 0.00 | 57 | 1004.5 |
| 20260505165154 | 70 | 213 | 4.0 | 6.0 | 0.00 | 0.00 | 0.00 | 56 | 1004.4 |
| 20260505164650 | 70 | 216 | 3.0 | 3.0 | 0.00 | 0.00 | 0.00 | 56 | 1004.5 |
| 20260505164147 | 71 | 214 | 5.0 | 6.0 | 0.00 | 0.00 | 0.00 | 57 | 1004.5 |
| 20260505163645 | 71 | 216 | 5.0 | 6.0 | 0.00 | 0.00 | 0.00 | 58 | 1004.0 |
| 20260505163143 | 70 | 204 | 3.0 | 5.0 | 0.00 | 0.00 | 0.00 | 57 | 1004.1 |
| 20260505162640 | 70 | 227 | 5.0 | 7.0 | 0.00 | 0.00 | 0.00 | 57 | 1004.1 |
| 20260505162138 | 70 | 206 | 3.0 | 3.0 | 0.00 | 0.00 | 0.00 | 57 | 1004.1 |
| 20260505161635 | 70 | 220 | 3.0 | 3.0 | 0.00 | 0.00 | 0.00 | 57 | 1004.0 |
| 20260505161132 | 70 | 224 | 3.0 | 3.0 | 0.00 | 0.00 | 0.00 | 57 | 1004.0 |
| 20260505160630 | 70 | 221 | 3.0 | 3.0 | 0.00 | 0.00 | 0.00 | 58 | 1003.8 |
| 20260505160127 | 70 | 206 | 4.0 | 5.0 | 0.00 | 0.00 | 0.00 | 59 | 1004.0 |
| 20260505153107 | 70 | 202 | 2.0 | 3.0 | 0.00 | 0.00 | 0.00 | 59 | 1004.5 |
| 20260505152603 | 70 | 233 | 5.0 | 6.0 | 0.00 | 0.00 | 0.00 | 57 | 1004.4 |
| 20260505152059 | 70 | 219 | 5.0 | 6.0 | 0.00 | 0.00 | 0.00 | 58 | 1004.4 |
| 20260505151554 | 70 | 206 | 7.0 | 8.0 | 0.00 | 0.00 | 0.00 | 57 | 1004.6 |
| 20260505151052 | 70 | 204 | 3.0 | 3.0 | 0.00 | 0.00 | 0.00 | 60 | 1004.5 |
| 20260505150548 | 70 | 218 | 6.0 | 8.0 | 0.00 | 0.00 | 0.00 | 57 | 1004.2 |
| 20260505140513 | 69 | 199 | 2.0 | 2.0 | 0.00 | 0.00 | 0.00 | 61 | 1004.0 |